Change the Weather History Date:

Sunday, December 1, 2013

  Actual Average Record
Temperature  
Mean Temperature 80 °F -  
Max Temperature 88 °F 87 °F 93 °F (2001)
Min Temperature 72 °F 72 °F 66 °F (2004)
Cooling Degree Days 15    
Growing Degree Days 30 (Base 50)    
Moisture  
Dew Point 67 °F    
Average Humidity 58    
Maximum Humidity 69    
Minimum Humidity 42    
Precipitation  
Precipitation 0.00 in - - ()
Sea Level Pressure  
Sea Level Pressure 29.85 in    
Wind  
Wind Speed 13 mph ()    
Max Wind Speed 24 mph    
Max Gust Speed -    
Visibility 7.8 miles    
Events      
Averages and records for this station are not official NWS values.
T = Trace of Precipitation, MM = Missing Value Source: Averaged Metar Reports

Daily Weather History Graph

Daily Weather History Graph

Search for Another Location

Airport or City:

Trip Planner

Search our weather history database for the weather conditions in past years. The results will help you decide how hot, cold, wet, or windy it might be!

Date:

Astronomy

Dec. 01, 2013 Rise Set
Actual Time 5:44 AM CST 5:17 PM CST
Civil Twilight 5:22 AM CST 5:40 PM CST
Nautical Twilight 4:56 AM CST 6:06 PM CST
Astronomical Twilight 4:30 AM CST 6:32 PM CST
Moon 4:16 AM CST (12/1) 4:16 PM CST (12/1)
Length of Visible Light 12h 18m
Length of Day
11h 33m
Waning Crescent, 2% of the Moon is Illuminated
Dec 1
Waning Crescent
Dec 2
New
Dec 9
First Quarter
Dec 17
Full
Dec 25
Last Quarter

Hourly Weather History & Observations

Time (CST) Temp. Heat Index Dew Point Humidity Pressure Visibility Wind Dir Wind Speed Gust Speed Precip Events Conditions
6:00 AM 76 °F - 66 °F 64% 29.87 in 12 mi East 12.7 mph - -   Scattered Clouds
6:00 AM 77.0 °F - 66.2 °F 69% 29.84 in 6.2 mi East 12.7 mph - N/A   Scattered Clouds
7:00 AM 78.8 °F - 68.0 °F 69% 29.87 in 6.2 mi East 10.4 mph - N/A   Partly Cloudy
8:00 AM 82.4 °F 85.4 °F 68.0 °F 62% 29.89 in 6.2 mi NE 8.1 mph - N/A   Partly Cloudy
9:00 AM 83 °F - 68 °F 51% 29.94 in 12 mi ENE 13.8 mph - -   Scattered Clouds
9:00 AM 84.2 °F 87.3 °F 68.0 °F 58% 29.90 in 6.2 mi ENE 13.8 mph - N/A   Scattered Clouds
10:00 AM 84.2 °F 87.3 °F 68.0 °F 58% 29.89 in 6.2 mi NE 24.2 mph - N/A   Partly Cloudy
11:00 AM 86.0 °F 89.4 °F 68.0 °F 55% 29.87 in 6.2 mi ENE 20.7 mph - N/A   Partly Cloudy
12:00 PM 87 °F - 67 °F 42% 29.87 in 12 mi ENE 23.0 mph - -   Scattered Clouds
12:00 PM 87.8 °F 90.4 °F 66.2 °F 49% 29.84 in 6.2 mi ENE 23.0 mph - N/A   Partly Cloudy
1:00 PM 87.8 °F 91.4 °F 68.0 °F 52% 29.83 in 6.2 mi ENE 23.0 mph - N/A   Partly Cloudy
2:00 PM 86.0 °F 89.4 °F 68.0 °F 55% 29.81 in 6.2 mi East 17.3 mph - N/A   Scattered Clouds
3:00 PM 86 °F - 67 °F 44% 29.83 in 12 mi ENE 18.4 mph - -   Partly Cloudy
3:00 PM 86.0 °F 89.4 °F 68.0 °F 55% 29.80 in 6.2 mi ENE 18.4 mph - N/A   Scattered Clouds
4:00 PM 82.4 °F 85.4 °F 68.0 °F 62% 29.80 in 6.2 mi ENE 16.1 mph - N/A   Scattered Clouds
5:00 PM 80.6 °F 83.2 °F 68.0 °F 65% 29.81 in 6.2 mi East 11.5 mph - N/A   Scattered Clouds
6:00 PM 78 °F - 67 °F 61% 29.87 in 12 mi ESE 8.1 mph - -   Partly Cloudy
6:00 PM 77.0 °F - 66.2 °F 69% 29.83 in 6.2 mi ESE 8.1 mph - N/A   Scattered Clouds
7:00 PM 78.8 °F - 64.4 °F 61% 29.86 in - East 17.3 mph - N/A   Clear
8:00 PM 77.0 °F - 64.4 °F 65% 29.87 in - ENE 11.5 mph - N/A   Clear